| time (UTC) | temp F | wind direction | speed MPH | gust MPH | rain 1hr in | rain 24hr in | rain mn in | humidity % | barometer mb |
| 20260506185009 | 63 | 224 | 1.0 | 5.0 | 0.00 | 0.00 | 0.00 | 71 | 1022.3 |
| 20260506184509 | 63 | 216 | 3.0 | 9.0 | 0.00 | 0.00 | 0.00 | 68 | 1022.3 |
| 20260506184008 | 62 | 236 | 5.0 | 9.0 | 0.00 | 0.00 | 0.00 | 68 | 1022.2 |
| 20260506183508 | 62 | 217 | 1.0 | 7.0 | 0.00 | 0.00 | 0.00 | 70 | 1022.3 |
| 20260506183008 | 62 | 244 | 3.0 | 8.0 | 0.00 | 0.00 | 0.00 | 67 | 1022.2 |
| 20260506182506 | 62 | 289 | 2.0 | 8.0 | 0.00 | 0.00 | 0.00 | 65 | 1022.2 |
| 20260506182006 | 62 | 281 | 2.0 | 6.0 | 0.00 | 0.00 | 0.00 | 66 | 1022.4 |
| 20260506181506 | 62 | 209 | 2.0 | 6.0 | 0.00 | 0.00 | 0.00 | 64 | 1022.3 |
| 20260506181005 | 62 | 296 | 2.0 | 5.0 | 0.00 | 0.00 | 0.00 | 68 | 1022.2 |
| 20260506180505 | 62 | 269 | 2.0 | 5.0 | 0.00 | 0.00 | 0.00 | 68 | 1022.2 |
| 20260506180005 | 63 | 272 | 2.0 | 6.0 | 0.00 | 0.00 | 0.00 | 65 | 1022.2 |
| 20260506175505 | 63 | 291 | 1.0 | 6.0 | 0.00 | 0.00 | 0.00 | 65 | 1022.3 |
| 20260506175004 | 62 | 321 | 2.0 | 5.0 | 0.00 | 0.00 | 0.00 | 65 | 1022.3 |
| 20260506174502 | 62 | 239 | 0.0 | 3.0 | 0.00 | 0.00 | 0.00 | 67 | 1022.2 |
| 20260506174002 | 62 | 244 | 1.0 | 4.0 | 0.00 | 0.00 | 0.00 | 65 | 1022.2 |
| 20260506173504 | 62 | 301 | 1.0 | 4.0 | 0.00 | 0.00 | 0.00 | 68 | 1022.3 |
| 20260506173001 | 62 | 295 | 0.0 | 3.0 | 0.00 | 0.00 | 0.00 | 70 | 1022.2 |
| 20260506172600 | 62 | 290 | 1.0 | 3.0 | 0.00 | 0.00 | 0.00 | 68 | 1022.3 |
| 20260506172100 | 62 | 313 | 1.0 | 3.0 | 0.00 | 0.00 | 0.00 | 69 | 1022.2 |
| 20260506171608 | 62 | 19 | 0.0 | 3.0 | 0.00 | 0.00 | 0.00 | 67 | 1022.2 |
| 20260506171059 | 61 | 28 | 1.0 | 4.0 | 0.00 | 0.00 | 0.00 | 69 | 1022.2 |
| 20260506170558 | 62 | 38 | 2.0 | 5.0 | 0.00 | 0.00 | 0.00 | 66 | 1022.4 |
| 20260506170107 | 62 | 15 | 1.0 | 5.0 | 0.00 | 0.00 | 0.00 | 70 | 1022.4 |
| 20260506165558 | 61 | 25 | 1.0 | 3.0 | 0.00 | 0.01 | 0.00 | 72 | 1022.4 |
| 20260506165056 | 61 | 302 | 1.0 | 3.0 | 0.00 | 0.01 | 0.00 | 71 | 1022.4 |
| 20260506164553 | 60 | 59 | 0.0 | 4.0 | 0.00 | 0.01 | 0.00 | 71 | 1022.4 |
| 20260506164051 | 60 | 78 | 1.0 | 5.0 | 0.00 | 0.01 | 0.00 | 72 | 1022.4 |
| 20260506163550 | 60 | 14 | 1.0 | 5.0 | 0.00 | 0.01 | 0.00 | 74 | 1022.4 |
| 20260506163049 | 59 | 71 | 0.0 | 5.0 | 0.00 | 0.01 | 0.00 | 71 | 1022.4 |
| 20260506162547 | 59 | 81 | 1.0 | 6.0 | 0.00 | 0.01 | 0.00 | 75 | 1022.4 |
| 20260506162048 | 59 | 20 | 1.0 | 5.0 | 0.00 | 0.01 | 0.00 | 73 | 1022.3 |
| 20260506161546 | 59 | 77 | 1.0 | 5.0 | 0.00 | 0.01 | 0.00 | 74 | 1022.3 |
| 20260506161044 | 59 | 32 | 2.0 | 5.0 | 0.00 | 0.01 | 0.00 | 75 | 1022.4 |
| 20260506160543 | 58 | 29 | 2.0 | 4.0 | 0.00 | 0.01 | 0.00 | 75 | 1022.4 |
| 20260506160048 | 57 | 40 | 0.0 | 2.0 | 0.00 | 0.01 | 0.00 | 73 | 1022.4 |
| 20260506155540 | 58 | 17 | 0.0 | 4.0 | 0.00 | 0.01 | 0.00 | 75 | 1022.5 |
| 20260506155039 | 58 | 29 | 1.0 | 4.0 | 0.00 | 0.01 | 0.00 | 76 | 1022.5 |
| 20260506154538 | 57 | 28 | 2.0 | 4.0 | 0.00 | 0.01 | 0.00 | 76 | 1022.5 |
| 20260506154036 | 57 | 65 | 1.0 | 3.0 | 0.00 | 0.01 | 0.00 | 77 | 1022.5 |
| 20260506153535 | 56 | 60 | 0.0 | 4.0 | 0.00 | 0.01 | 0.00 | 75 | 1022.6 |
| 20260506153033 | 56 | 61 | 2.0 | 6.0 | 0.00 | 0.01 | 0.00 | 76 | 1022.5 |
| 20260506152532 | 56 | 74 | 1.0 | 7.0 | 0.00 | 0.01 | 0.00 | 77 | 1022.6 |
| 20260506152030 | 56 | 92 | 2.0 | 5.0 | 0.00 | 0.01 | 0.00 | 79 | 1022.6 |
| 20260506151530 | 55 | 60 | 1.0 | 5.0 | 0.00 | 0.01 | 0.00 | 75 | 1022.6 |
| 20260506151028 | 55 | 62 | 2.0 | 4.0 | 0.00 | 0.01 | 0.00 | 77 | 1022.7 |
| 20260506150527 | 55 | 62 | 2.0 | 4.0 | 0.00 | 0.01 | 0.00 | 79 | 1022.6 |
| 20260506150025 | 55 | 71 | 1.0 | 4.0 | 0.00 | 0.01 | 0.00 | 78 | 1022.6 |
| 20260506145522 | 54 | 98 | 2.0 | 4.0 | 0.00 | 0.02 | 0.00 | 79 | 1022.6 |
| 20260506145021 | 54 | 74 | 1.0 | 4.0 | 0.00 | 0.02 | 0.00 | 81 | 1022.7 |
| 20260506144519 | 53 | 53 | 1.0 | 4.0 | 0.00 | 0.02 | 0.00 | 81 | 1022.7 |
| 20260506144018 | 53 | 96 | 1.0 | 4.0 | 0.00 | 0.02 | 0.00 | 82 | 1022.7 |
| 20260506143517 | 53 | 38 | 1.0 | 4.0 | 0.00 | 0.02 | 0.00 | 83 | 1022.5 |
| 20260506143015 | 53 | 85 | 2.0 | 4.0 | 0.00 | 0.02 | 0.00 | 84 | 1022.5 |
| 20260506142513 | 52 | 63 | 1.0 | 4.0 | 0.00 | 0.02 | 0.00 | 85 | 1022.5 |
| 20260506142013 | 52 | 52 | 1.0 | 3.0 | 0.00 | 0.02 | 0.00 | 86 | 1022.3 |
| 20260506141511 | 51 | 82 | 1.0 | 3.0 | 0.00 | 0.02 | 0.00 | 88 | 1022.2 |
| 20260506141009 | 51 | 61 | 1.0 | 4.0 | 0.00 | 0.02 | 0.00 | 88 | 1022.2 |
| 20260506140508 | 51 | 71 | 1.0 | 3.0 | 0.00 | 0.02 | 0.00 | 88 | 1022.2 |
| 20260506140005 | 50 | 73 | 2.0 | 4.0 | 0.00 | 0.03 | 0.00 | 89 | 1022.1 |
| 20260506135504 | 50 | 72 | 1.0 | 4.0 | 0.00 | 0.03 | 0.00 | 89 | 1022.0 |
| 20260506135002 | 50 | 76 | 2.0 | 4.0 | 0.00 | 0.03 | 0.00 | 89 | 1022.0 |
| 20260506134502 | 49 | 74 | 1.0 | 4.0 | 0.00 | 0.03 | 0.00 | 90 | 1022.0 |
| 20260506134100 | 49 | 74 | 2.0 | 3.0 | 0.00 | 0.03 | 0.00 | 90 | 1021.9 |
| 20260506133559 | 49 | 74 | 1.0 | 4.0 | 0.00 | 0.03 | 0.00 | 89 | 1021.9 |
| 20260506133113 | 49 | 76 | 2.0 | 4.0 | 0.00 | 0.03 | 0.00 | 89 | 1021.9 |
| 20260506132557 | 49 | 77 | 2.0 | 4.0 | 0.00 | 0.03 | 0.00 | 89 | 1022.0 |
| 20260506132056 | 49 | 61 | 1.0 | 3.0 | 0.00 | 0.03 | 0.00 | 89 | 1021.9 |
| 20260506131603 | 49 | 54 | 2.0 | 4.0 | 0.00 | 0.03 | 0.00 | 89 | 1021.9 |
| 20260506131056 | 49 | 53 | 2.0 | 4.0 | 0.00 | 0.03 | 0.00 | 89 | 1021.9 |
| 20260506130555 | 49 | 55 | 2.0 | 4.0 | 0.00 | 0.03 | 0.00 | 89 | 1021.8 |
| 20260506130057 | 49 | 76 | 2.0 | 3.0 | 0.00 | 0.03 | 0.00 | 89 | 1021.8 |
| 20260506125553 | 49 | 80 | 1.0 | 3.0 | 0.00 | 0.03 | 0.00 | 89 | 1021.8 |
| 20260506125053 | 49 | 80 | 2.0 | 4.0 | 0.00 | 0.03 | 0.00 | 89 | 1021.7 |
| 20260506124559 | 49 | 80 | 2.0 | 4.0 | 0.00 | 0.03 | 0.00 | 89 | 1021.7 |
| 20260506124053 | 49 | 83 | 2.0 | 3.0 | 0.00 | 0.03 | 0.00 | 89 | 1021.7 |
| 20260506123553 | 49 | 83 | 1.0 | 3.0 | 0.00 | 0.03 | 0.00 | 89 | 1021.5 |
| 20260506123053 | 49 | 83 | 1.0 | 4.0 | 0.00 | 0.03 | 0.00 | 89 | 1021.7 |
| 20260506122553 | 49 | 84 | 1.0 | 4.0 | 0.00 | 0.03 | 0.00 | 89 | 1021.6 |
| 20260506122052 | 49 | 82 | 2.0 | 4.0 | 0.00 | 0.03 | 0.00 | 89 | 1021.5 |
| 20260506121553 | 49 | 82 | 2.0 | 5.0 | 0.00 | 0.03 | 0.00 | 90 | 1021.6 |
| 20260506121052 | 49 | 82 | 2.0 | 4.0 | 0.00 | 0.03 | 0.00 | 90 | 1021.4 |
| 20260506120556 | 49 | 83 | 2.0 | 3.0 | 0.00 | 0.03 | 0.00 | 90 | 1021.5 |
| 20260506120052 | 49 | 83 | 1.0 | 6.0 | 0.00 | 0.03 | 0.00 | 91 | 1021.5 |
| 20260506115552 | 49 | 83 | 2.0 | 6.0 | 0.00 | 0.04 | 0.00 | 91 | 1021.4 |
| 20260506115051 | 49 | 84 | 2.0 | 4.0 | 0.00 | 0.04 | 0.00 | 91 | 1021.7 |
| 20260506114553 | 49 | 90 | 2.0 | 4.0 | 0.00 | 0.04 | 0.00 | 91 | 1021.5 |
| 20260506114051 | 49 | 86 | 2.0 | 4.0 | 0.00 | 0.04 | 0.00 | 91 | 1021.4 |
| 20260506113552 | 49 | 87 | 2.0 | 4.0 | 0.00 | 0.04 | 0.00 | 92 | 1021.5 |
| 20260506113051 | 49 | 90 | 2.0 | 4.0 | 0.00 | 0.04 | 0.00 | 92 | 1021.5 |
| 20260506112555 | 48 | 84 | 2.0 | 4.0 | 0.00 | 0.04 | 0.00 | 92 | 1021.4 |
| 20260506112050 | 48 | 84 | 2.0 | 4.0 | 0.00 | 0.04 | 0.00 | 92 | 1021.5 |
| 20260506111550 | 48 | 86 | 2.0 | 4.0 | 0.00 | 0.04 | 0.00 | 92 | 1021.4 |
| 20260506111049 | 48 | 86 | 2.0 | 4.0 | 0.00 | 0.04 | 0.00 | 92 | 1021.4 |
| 20260506110551 | 48 | 86 | 2.0 | 4.0 | 0.00 | 0.04 | 0.00 | 92 | 1021.4 |
| 20260506110049 | 48 | 99 | 1.0 | 3.0 | 0.00 | 0.04 | 0.00 | 92 | 1021.3 |
| 20260506105549 | 48 | 100 | 2.0 | 3.0 | 0.00 | 0.05 | 0.00 | 92 | 1021.3 |
| 20260506105051 | 48 | 107 | 2.0 | 3.0 | 0.00 | 0.05 | 0.00 | 92 | 1021.3 |
| 20260506104550 | 48 | 159 | 1.0 | 3.0 | 0.00 | 0.05 | 0.00 | 92 | 1021.4 |
| 20260506104048 | 48 | 198 | 1.0 | 2.0 | 0.00 | 0.05 | 0.00 | 92 | 1021.3 |
| 20260506103547 | 48 | 198 | 0.0 | 2.0 | 0.00 | 0.05 | 0.00 | 92 | 1021.4 |
| 20260506103047 | 48 | 198 | 0.0 | 3.0 | 0.00 | 0.05 | 0.00 | 92 | 1021.4 |
| 20260506102547 | 48 | 198 | 1.0 | 3.0 | 0.00 | 0.05 | 0.00 | 92 | 1021.4 |
| 20260506102047 | 48 | 199 | 1.0 | 3.0 | 0.00 | 0.05 | 0.00 | 92 | 1021.3 |
| 20260506101547 | 48 | 200 | 1.0 | 3.0 | 0.00 | 0.05 | 0.00 | 92 | 1021.2 |
| 20260506101046 | 48 | 200 | 1.0 | 3.0 | 0.00 | 0.05 | 0.00 | 92 | 1021.2 |
| 20260506100547 | 48 | 200 | 1.0 | 4.0 | 0.00 | 0.05 | 0.00 | 92 | 1021.2 |
| 20260506100046 | 48 | 202 | 1.0 | 4.0 | 0.00 | 0.05 | 0.00 | 92 | 1021.1 |
| 20260506095547 | 48 | 203 | 1.0 | 2.0 | 0.00 | 0.07 | 0.00 | 92 | 1021.2 |
| 20260506095045 | 48 | 267 | 0.0 | 1.0 | 0.00 | 0.07 | 0.00 | 92 | 1021.1 |
| 20260506094601 | 48 | 267 | 0.0 | 0.0 | 0.00 | 0.07 | 0.00 | 92 | 1021.0 |
| 20260506094045 | 48 | 267 | 0.0 | 1.0 | 0.00 | 0.07 | 0.00 | 92 | 1021.0 |
| 20260506093544 | 48 | 267 | 0.0 | 2.0 | 0.00 | 0.07 | 0.00 | 92 | 1021.0 |
| 20260506093044 | 48 | 267 | 0.0 | 2.0 | 0.00 | 0.07 | 0.00 | 92 | 1020.9 |
| 20260506092545 | 48 | 267 | 0.0 | 2.0 | 0.00 | 0.07 | 0.00 | 92 | 1020.9 |
| 20260506092045 | 48 | 267 | 0.0 | 3.0 | 0.00 | 0.07 | 0.00 | 92 | 1020.8 |
| 20260506091546 | 48 | 267 | 0.0 | 3.0 | 0.00 | 0.07 | 0.00 | 92 | 1020.9 |
| 20260506091044 | 48 | 256 | 1.0 | 3.0 | 0.00 | 0.07 | 0.00 | 91 | 1020.8 |
| 20260506090543 | 48 | 254 | 1.0 | 3.0 | 0.00 | 0.07 | 0.00 | 91 | 1020.9 |
| 20260506090043 | 48 | 322 | 1.0 | 3.0 | 0.00 | 0.07 | 0.00 | 91 | 1020.7 |
| 20260506085542 | 48 | 322 | 1.0 | 3.0 | 0.00 | 0.10 | 0.00 | 91 | 1020.7 |
| 20260506085043 | 48 | 323 | 0.0 | 3.0 | 0.00 | 0.10 | 0.00 | 91 | 1020.6 |
| 20260506084544 | 48 | 292 | 1.0 | 3.0 | 0.00 | 0.10 | 0.00 | 91 | 1020.5 |
| 20260506084041 | 48 | 290 | 1.0 | 3.0 | 0.00 | 0.10 | 0.00 | 91 | 1020.5 |
| 20260506083543 | 48 | 289 | 1.0 | 4.0 | 0.00 | 0.10 | 0.00 | 91 | 1020.3 |
| 20260506083041 | 48 | 289 | 2.0 | 4.0 | 0.00 | 0.10 | 0.00 | 91 | 1020.3 |
| 20260506082539 | 48 | 252 | 1.0 | 3.0 | 0.00 | 0.10 | 0.00 | 91 | 1020.4 |
| 20260506082039 | 48 | 186 | 0.0 | 2.0 | 0.00 | 0.10 | 0.00 | 90 | 1020.4 |
| 20260506081539 | 48 | 186 | 0.0 | 3.0 | 0.00 | 0.10 | 0.00 | 90 | 1020.5 |
| 20260506081038 | 49 | 186 | 0.0 | 3.0 | 0.00 | 0.10 | 0.00 | 90 | 1020.5 |
| 20260506080537 | 49 | 181 | 0.0 | 2.0 | 0.00 | 0.10 | 0.00 | 91 | 1020.7 |
| 20260506073032 | 50 | 111 | 1.0 | 4.0 | 0.00 | 0.13 | 0.00 | 90 | 1021.7 |
| 20260506072534 | 50 | 35 | 2.0 | 4.0 | 0.00 | 0.13 | 0.00 | 90 | 1021.9 |
| 20260506072030 | 50 | 77 | 1.0 | 2.0 | 0.00 | 0.13 | 0.00 | 89 | 1021.4 |
| 20260506071531 | 50 | 77 | 0.0 | 2.0 | 0.00 | 0.13 | 0.00 | 89 | 1021.2 |
| 20260506071027 | 50 | 77 | 1.0 | 2.0 | 0.00 | 0.13 | 0.00 | 89 | 1021.1 |
| 20260506070526 | 49 | 91 | 0.0 | 2.0 | 0.00 | 0.13 | 0.00 | 90 | 1021.0 |
| 20260506062023 | 49 | 36 | 1.0 | 3.0 | 0.00 | 0.15 | 0.13 | 90 | 1020.4 |
| 20260506061523 | 49 | 325 | 0.0 | 2.0 | 0.00 | 0.15 | 0.13 | 89 | 1020.4 |
| 20260506061024 | 49 | 283 | 0.0 | 1.0 | 0.00 | 0.15 | 0.13 | 90 | 1020.4 |
| 20260506060527 | 49 | 283 | 0.0 | 1.0 | 0.00 | 0.15 | 0.13 | 90 | 1020.3 |
| 20260506051020 | 50 | 283 | 0.0 | 1.0 | 0.00 | 0.15 | 0.13 | 89 | 1020.1 |
| 20260506050518 | 50 | 284 | 0.0 | 1.0 | 0.00 | 0.15 | 0.13 | 89 | 1019.9 |
| 20260506045015 | 50 | 285 | 0.0 | 1.0 | 0.00 | 0.15 | 0.13 | 89 | 1019.8 |
| 20260506044516 | 50 | 285 | 0.0 | 1.0 | 0.00 | 0.15 | 0.13 | 89 | 1019.6 |
| 20260506044015 | 50 | 285 | 0.0 | 1.0 | 0.00 | 0.15 | 0.13 | 89 | 1019.6 |
| 20260506043515 | 50 | 285 | 0.0 | 0.0 | 0.00 | 0.15 | 0.13 | 89 | 1019.7 |
| 20260506043015 | 50 | 285 | 0.0 | 0.0 | 0.00 | 0.15 | 0.13 | 89 | 1019.7 |
| 20260506042515 | 50 | 285 | 0.0 | 1.0 | 0.00 | 0.15 | 0.13 | 89 | 1019.6 |
| 20260506042015 | 50 | 285 | 0.0 | 1.0 | 0.00 | 0.15 | 0.13 | 89 | 1019.6 |
| 20260506041516 | 50 | 285 | 0.0 | 0.0 | 0.00 | 0.15 | 0.13 | 89 | 1019.5 |
| 20260506041013 | 50 | 285 | 0.0 | 0.0 | 0.00 | 0.15 | 0.13 | 89 | 1019.6 |
| 20260506040513 | 50 | 285 | 0.0 | 1.0 | 0.00 | 0.15 | 0.13 | 89 | 1019.5 |
| 20260506040013 | 50 | 285 | 0.0 | 0.0 | 0.00 | 0.15 | 0.13 | 89 | 1019.4 |
| 20260506035516 | 50 | 285 | 0.0 | 0.0 | 0.00 | 0.15 | 0.13 | 89 | 1019.4 |
| 20260506035011 | 50 | 285 | 0.0 | 0.0 | 0.00 | 0.15 | 0.13 | 89 | 1019.3 |
| 20260506034511 | 50 | 285 | 0.0 | 0.0 | 0.00 | 0.15 | 0.13 | 89 | 1019.1 |
| 20260506034009 | 50 | 285 | 0.0 | 0.0 | 0.00 | 0.15 | 0.13 | 89 | 1019.0 |
| 20260506033508 | 50 | 285 | 0.0 | 0.0 | 0.00 | 0.15 | 0.13 | 89 | 1018.9 |
| 20260506033008 | 50 | 285 | 0.0 | 0.0 | 0.00 | 0.15 | 0.13 | 89 | 1018.8 |
| 20260506032508 | 50 | 285 | 0.0 | 0.0 | 0.00 | 0.15 | 0.13 | 88 | 1018.8 |
| 20260506032008 | 50 | 285 | 0.0 | 0.0 | 0.00 | 0.15 | 0.13 | 88 | 1018.7 |
| 20260506031508 | 50 | 285 | 0.0 | 0.0 | 0.00 | 0.15 | 0.13 | 88 | 1018.6 |
| 20260506031010 | 50 | 285 | 0.0 | 1.0 | 0.00 | 0.15 | 0.13 | 88 | 1018.6 |
| 20260506030508 | 50 | 285 | 0.0 | 1.0 | 0.00 | 0.15 | 0.13 | 88 | 1018.6 |
| 20260506030016 | 50 | 285 | 0.0 | 2.0 | 0.00 | 0.15 | 0.13 | 88 | 1018.6 |
| 20260506025506 | 50 | 285 | 0.0 | 2.0 | 0.00 | 0.15 | 0.13 | 88 | 1018.7 |
| 20260506025006 | 50 | 285 | 0.0 | 1.0 | 0.00 | 0.15 | 0.13 | 88 | 1018.6 |
| 20260506024516 | 50 | 285 | 0.0 | 0.0 | 0.00 | 0.15 | 0.13 | 88 | 1018.6 |
| 20260506024005 | 50 | 285 | 0.0 | 0.0 | 0.00 | 0.15 | 0.13 | 87 | 1018.6 |
| 20260506023505 | 50 | 285 | 0.0 | 0.0 | 0.00 | 0.15 | 0.13 | 87 | 1018.5 |
| 20260506023005 | 50 | 285 | 0.0 | 0.0 | 0.00 | 0.15 | 0.13 | 87 | 1018.4 |
| 20260506022504 | 50 | 285 | 0.0 | 0.0 | 0.00 | 0.15 | 0.13 | 87 | 1018.3 |
| 20260506022004 | 50 | 285 | 0.0 | 0.0 | 0.00 | 0.15 | 0.13 | 87 | 1018.3 |
| 20260506021504 | 50 | 285 | 0.0 | 0.0 | 0.00 | 0.15 | 0.13 | 87 | 1018.2 |
| 20260506021003 | 50 | 285 | 0.0 | 0.0 | 0.00 | 0.15 | 0.13 | 86 | 1018.2 |
| 20260506020503 | 50 | 285 | 0.0 | 0.0 | 0.00 | 0.15 | 0.13 | 86 | 1018.3 |
| 20260506020005 | 50 | 285 | 0.0 | 0.0 | 0.00 | 0.15 | 0.13 | 86 | 1018.1 |
| 20260506015503 | 50 | 285 | 0.0 | 0.0 | 0.00 | 0.15 | 0.13 | 86 | 1018.3 |
| 20260506015003 | 50 | 285 | 0.0 | 2.0 | 0.00 | 0.15 | 0.13 | 86 | 1018.3 |
| 20260506014502 | 51 | 285 | 0.0 | 2.0 | 0.00 | 0.15 | 0.13 | 86 | 1018.3 |
| 20260506014002 | 50 | 285 | 0.0 | 3.0 | 0.00 | 0.15 | 0.13 | 86 | 1018.2 |
| 20260506013501 | 51 | 284 | 1.0 | 3.0 | 0.00 | 0.15 | 0.13 | 87 | 1018.2 |
| 20260506013002 | 51 | 282 | 0.0 | 2.0 | 0.00 | 0.15 | 0.13 | 87 | 1018.3 |
| 20260506012502 | 51 | 282 | 0.0 | 2.0 | 0.00 | 0.15 | 0.13 | 87 | 1018.4 |
| 20260506012059 | 51 | 281 | 0.0 | 2.0 | 0.00 | 0.15 | 0.13 | 86 | 1018.3 |
| 20260506011559 | 51 | 281 | 0.0 | 3.0 | 0.00 | 0.15 | 0.13 | 86 | 1018.3 |
| 20260506011101 | 51 | 284 | 0.0 | 2.0 | 0.00 | 0.15 | 0.13 | 85 | 1018.2 |
| 20260506010600 | 51 | 283 | 0.0 | 2.0 | 0.00 | 0.15 | 0.13 | 85 | 1018.2 |
| 20260506010057 | 51 | 281 | 0.0 | 2.0 | 0.00 | 0.15 | 0.13 | 85 | 1018.2 |
| 20260506005559 | 52 | 310 | 0.0 | 2.0 | 0.00 | 0.15 | 0.13 | 85 | 1018.3 |
| 20260506005055 | 52 | 310 | 0.0 | 1.0 | 0.00 | 0.15 | 0.13 | 84 | 1018.2 |
| 20260506004556 | 52 | 311 | 0.0 | 3.0 | 0.00 | 0.15 | 0.13 | 84 | 1018.2 |
| 20260506004055 | 52 | 311 | 1.0 | 3.0 | 0.00 | 0.15 | 0.13 | 84 | 1018.2 |
| 20260506003553 | 52 | 311 | 0.0 | 1.0 | 0.00 | 0.15 | 0.13 | 85 | 1018.3 |
| 20260506003053 | 52 | 311 | 0.0 | 1.0 | 0.00 | 0.15 | 0.13 | 86 | 1018.2 |
| 20260506002551 | 52 | 311 | 0.0 | 1.0 | 0.00 | 0.15 | 0.13 | 86 | 1018.2 |
| 20260506002050 | 51 | 311 | 0.0 | 1.0 | 0.00 | 0.15 | 0.13 | 85 | 1018.2 |
| 20260506001551 | 52 | 311 | 0.0 | 1.0 | 0.00 | 0.15 | 0.13 | 85 | 1018.3 |
| 20260506001050 | 52 | 311 | 0.0 | 0.0 | 0.00 | 0.15 | 0.13 | 85 | 1018.3 |
| 20260506000549 | 52 | 311 | 0.0 | 2.0 | 0.00 | 0.15 | 0.13 | 85 | 1018.2 |
| 20260506000052 | 51 | 311 | 0.0 | 2.0 | 0.00 | 0.15 | 0.13 | 85 | 1018.3 |
| 20260505235549 | 51 | 300 | 0.0 | 3.0 | 0.00 | 0.15 | 0.13 | 85 | 1018.3 |
| 20260505235049 | 51 | 300 | 1.0 | 3.0 | 0.00 | 0.15 | 0.13 | 85 | 1018.2 |
| 20260505234553 | 51 | 300 | 0.0 | 3.0 | 0.00 | 0.15 | 0.13 | 85 | 1018.3 |
| 20260505234051 | 51 | 300 | 0.0 | 3.0 | 0.00 | 0.15 | 0.13 | 85 | 1018.2 |
| 20260505233548 | 51 | 291 | 0.0 | 3.0 | 0.00 | 0.15 | 0.13 | 84 | 1018.0 |
| 20260505233049 | 51 | 290 | 1.0 | 3.0 | 0.00 | 0.15 | 0.13 | 84 | 1018.0 |
| 20260505232548 | 51 | 292 | 0.0 | 2.0 | 0.00 | 0.15 | 0.13 | 84 | 1018.1 |
| 20260505232048 | 51 | 291 | 0.0 | 2.0 | 0.00 | 0.15 | 0.13 | 84 | 1018.1 |
| 20260505231559 | 51 | 292 | 0.0 | 3.0 | 0.00 | 0.15 | 0.13 | 85 | 1018.0 |
| 20260505231048 | 51 | 291 | 0.0 | 4.0 | 0.00 | 0.15 | 0.13 | 85 | 1018.1 |
| 20260505230548 | 51 | 292 | 0.0 | 2.0 | 0.00 | 0.15 | 0.13 | 84 | 1018.0 |
| 20260505230056 | 51 | 291 | 0.0 | 2.0 | 0.00 | 0.15 | 0.13 | 84 | 1018.0 |
| 20260505225547 | 51 | 291 | 0.0 | 4.0 | 0.00 | 0.15 | 0.13 | 84 | 1018.1 |
| 20260505225053 | 52 | 291 | 1.0 | 4.0 | 0.00 | 0.15 | 0.13 | 84 | 1018.1 |
| 20260505224548 | 52 | 302 | 0.0 | 2.0 | 0.00 | 0.15 | 0.13 | 84 | 1018.1 |
| 20260505224046 | 52 | 302 | 0.0 | 2.0 | 0.00 | 0.15 | 0.13 | 84 | 1018.1 |
| 20260505223546 | 52 | 302 | 0.0 | 2.0 | 0.00 | 0.15 | 0.13 | 84 | 1018.1 |
| 20260505223046 | 52 | 302 | 0.0 | 2.0 | 0.00 | 0.15 | 0.13 | 84 | 1018.2 |
| 20260505222546 | 52 | 302 | 0.0 | 2.0 | 0.00 | 0.15 | 0.13 | 84 | 1018.3 |
| 20260505222045 | 52 | 304 | 1.0 | 2.0 | 0.00 | 0.15 | 0.13 | 85 | 1018.2 |
| 20260505221545 | 51 | 271 | 0.0 | 2.0 | 0.00 | 0.15 | 0.13 | 85 | 1018.2 |
| 20260505221044 | 51 | 267 | 0.0 | 3.0 | 0.00 | 0.15 | 0.13 | 84 | 1018.2 |
| 20260505220544 | 51 | 265 | 0.0 | 4.0 | 0.00 | 0.15 | 0.13 | 84 | 1018.2 |
| 20260505220044 | 51 | 290 | 1.0 | 5.0 | 0.00 | 0.15 | 0.13 | 85 | 1018.2 |
| 20260505215543 | 51 | 288 | 1.0 | 5.0 | 0.00 | 0.16 | 0.13 | 86 | 1018.1 |
| 20260505215043 | 50 | 296 | 1.0 | 4.0 | 0.00 | 0.16 | 0.13 | 86 | 1018.1 |
| 20260505214543 | 50 | 275 | 0.0 | 6.0 | 0.00 | 0.16 | 0.13 | 86 | 1018.2 |
| 20260505214042 | 50 | 284 | 2.0 | 6.0 | 0.00 | 0.16 | 0.13 | 85 | 1018.3 |
| 20260505213542 | 50 | 228 | 0.0 | 4.0 | 0.00 | 0.16 | 0.13 | 85 | 1018.3 |
| 20260505213052 | 50 | 287 | 1.0 | 4.0 | 0.00 | 0.16 | 0.13 | 86 | 1018.3 |
| 20260505212542 | 50 | 265 | 0.0 | 5.0 | 0.00 | 0.16 | 0.13 | 88 | 1018.2 |
| 20260505212041 | 50 | 226 | 1.0 | 5.0 | 0.00 | 0.16 | 0.13 | 87 | 1018.2 |
| 20260505211545 | 50 | 230 | 0.0 | 4.0 | 0.00 | 0.16 | 0.13 | 87 | 1018.3 |
| 20260505211043 | 49 | 242 | 1.0 | 7.0 | 0.00 | 0.16 | 0.13 | 87 | 1018.4 |
| 20260505210540 | 49 | 277 | 1.0 | 7.0 | 0.00 | 0.16 | 0.13 | 87 | 1018.3 |
| 20260505210040 | 49 | 285 | 2.0 | 8.0 | 0.00 | 0.16 | 0.13 | 86 | 1018.2 |
| 20260505205540 | 49 | 288 | 2.0 | 8.0 | 0.00 | 0.19 | 0.13 | 87 | 1018.1 |
| 20260505205041 | 50 | 284 | 3.0 | 8.0 | 0.00 | 0.19 | 0.13 | 88 | 1018.1 |
| 20260505204540 | 50 | 301 | 3.0 | 5.0 | 0.00 | 0.19 | 0.13 | 88 | 1018.3 |
| 20260505204039 | 50 | 261 | 2.0 | 5.0 | 0.00 | 0.19 | 0.13 | 88 | 1018.2 |
| 20260505203539 | 50 | 240 | 2.0 | 5.0 | 0.00 | 0.19 | 0.13 | 87 | 1018.2 |
| 20260505203039 | 50 | 238 | 3.0 | 7.0 | 0.00 | 0.19 | 0.13 | 86 | 1018.1 |
| 20260505202539 | 50 | 282 | 3.0 | 7.0 | 0.00 | 0.19 | 0.13 | 86 | 1018.1 |
| 20260505202040 | 50 | 283 | 2.0 | 9.0 | 0.00 | 0.19 | 0.13 | 86 | 1017.9 |
| 20260505201539 | 50 | 282 | 3.0 | 9.0 | 0.00 | 0.19 | 0.13 | 86 | 1017.9 |
| 20260505201039 | 50 | 309 | 3.0 | 5.0 | 0.00 | 0.19 | 0.13 | 87 | 1018.0 |
| 20260505200539 | 50 | 288 | 2.0 | 7.0 | 0.00 | 0.19 | 0.13 | 86 | 1018.1 |
| 20260505200040 | 50 | 300 | 2.0 | 8.0 | 0.00 | 0.19 | 0.13 | 86 | 1018.2 |
| 20260505195538 | 50 | 304 | 3.0 | 8.0 | 0.00 | 0.19 | 0.13 | 86 | 1018.1 |
| 20260505195037 | 50 | 291 | 1.0 | 4.0 | 0.00 | 0.19 | 0.13 | 84 | 1018.3 |
| 20260505194537 | 51 | 281 | 1.0 | 8.0 | 0.00 | 0.19 | 0.13 | 85 | 1018.2 |
| 20260505194036 | 51 | 289 | 1.0 | 8.0 | 0.00 | 0.19 | 0.13 | 87 | 1018.2 |
| 20260505193534 | 51 | 297 | 2.0 | 7.0 | 0.00 | 0.19 | 0.13 | 86 | 1018.2 |
| 20260505193033 | 51 | 262 | 2.0 | 7.0 | 0.00 | 0.19 | 0.13 | 87 | 1018.1 |
| 20260505192535 | 51 | 311 | 2.0 | 5.0 | 0.00 | 0.19 | 0.13 | 88 | 1018.2 |
| 20260505192031 | 50 | 273 | 1.0 | 8.0 | 0.00 | 0.19 | 0.13 | 87 | 1018.0 |
| 20260505191533 | 50 | 284 | 2.0 | 8.0 | 0.00 | 0.19 | 0.13 | 88 | 1018.2 |
| 20260505191031 | 50 | 291 | 2.0 | 7.0 | 0.00 | 0.19 | 0.13 | 88 | 1018.1 |
| 20260505190527 | 50 | 288 | 2.0 | 7.0 | 0.00 | 0.19 | 0.13 | 89 | 1018.0 |
| 20260505190027 | 49 | 292 | 1.0 | 7.0 | 0.00 | 0.19 | 0.13 | 89 | 1017.9 |
| 20260505185525 | 49 | 290 | 3.0 | 6.0 | 0.00 | 0.19 | 0.13 | 89 | 1017.9 |